Location: Gibsondale
(40.9931°N, 80.2478°W)
Time: 17:28:40
(UTC+00:00)

ATLAS 2AS CENTAUR R/B - Pass Details

Date: 29 October 2020
Orbit: 939 x 1273 km, 63.7° (Epoch: 23 November)

Event Time Altitude Azimuth Distance (km) Brightness Sun altitude
Rises 23:36:41 0° 327° (NNW) 4,162 6.2 -15.0°
Reaches altitude 10° 23:40:06 10° 340° (NNW) 3,150 5.3 -15.7°
Maximum altitude 23:46:17 27° 35° (NE) 2,066 3.9 -16.8°
Enters shadow 23:48:38 23° 64° (ENE) 2,215 3.8 -17.3°
